Temperature
21 21 20 20 20 20 20 19 19 19 19 19 18 18 18 18 18 18 18 18 18 18 18 18 18 18 18 18 18 18 18 17 17 18 18 18 18 17 17 17 17 17 17
21 21 20 20 20 20 20 20 19 19 19 19 18 18 18 18 18 18 18 18 18 18 18 18 18 18 18 18 18 17 17 17 17 17 17 17 17 17 17 17 17 17 17
21 21 21 20 20 20 20 20 20 19 19 19 18 18 18 18 18 18 18 18 18 18 18 18 18 18 18 18 17 17 17 17 17 17 17 17 17 17 17 17 17 17 17
22 21 21 21 21 21 20 20 20 20 19 19 19 19 19 18 18 18 18 18 18 18 18 18 18 18 18 18 17 17 17 17 17 17 17 17 17 16 16 16 16 16 17
22 22 22 22 21 21 21 20 20 20 19 19 19 19 19 19 18 18 18 18 18 18 18 18 18 18 18 18 17 17 17 17 17 17 17 17 17 16 16 16 16 16 16
22 22 22 22 22 21 21 21 20 20 20 20 19 19 19 19 19 18 18 18 18 18 18 18 18 18 18 17 17 17 17 17 17 17 17 17 16 16 16 16 16 16 16
22 22 22 22 22 22 21 21 20 20 20 20 19 19 19 19 19 19 18 18 18 18 18 18 18 18 18 17 17 17 17 17 17 17 17 17 16 16 16 16 15 15 16
22 22 22 22 22 22 21 21 21 21 20 20 20 19 19 19 19 19 18 18 18 18 18 18 18 18 18 17 17 17 17 17 17 17 16 16 16 16 16 16 15 15 15
22 22 22 22 22 22 22 21 21 21 20 20 20 20 19 19 19 19 18 18 18 18 18 18 18 18 17 17 17 17 17 17 17 16 16 16 16 16 16 16 15 15 15
22 22 22 22 23 22 22 21 21 21 21 20 20 20 20 19 19 19 18 18 18 18 18 18 18 17 17 17 17 17 17 17 17 16 16 16 16 16 16 15 15 15 15
23 23 23 23 23 22 22 21 21 21 21 21 20 20 20 19 19 19 18 18 18 18 18 17 17 17 17 17 17 17 17 17 16 16 16 16 16 16 15 15 15 15 15
23 23 23 22 22 22 22 21 21 21 21 20 20 20 20 19 19 19 19 18 18 18 18 17 17 17 17 17 17 17 16 16 16 16 16 16 16 16 15 15 15 15 15
23 23 22 22 22 22 22 21 21 21 20 20 20 20 20 20 19 19 19 18 18 18 17 17 17 17 17 17 17 16 16 16 16 16 16 16 16 15 15 15 15 15 15
22 22 22 22 21 21 21 21 21 21 20 20 20 20 20 20 19 19 19 18 18 18 17 17 17 17 17 17 16 16 16 16 16 16 16 16 15 15 15 15 15 15 14
22 22 22 21 21 21 21 21 21 20 20 20 20 20 20 19 19 19 19 18 18 17 17 17 17 17 16 16 16 16 16 16 16 16 15 15 15 15 15 15 15 14 14
21 22 22 21 21 21 21 21 21 21 20 20 20 20 20 19 19 19 18 18 18 17 17 17 17 16 16 16 16 16 16 16 15 15 15 15 15 15 15 14 14 14 14
22 22 21 22 21 21 21 21 21 20 20 20 20 20 19 19 19 18 18 18 18 17 17 17 16 16 16 16 16 16 15 15 15 15 15 15 15 14 14 14 14 14 14
22 22 21 21 21 21 21 21 20 20 20 20 20 19 19 19 19 18 18 18 17 17 17 17 16 16 16 16 16 15 15 15 15 15 15 14 14 14 14 14 14 14 14
22 22 22 21 21 21 21 20 20 20 20 19 19 19 19 18 18 18 18 18 17 17 17 16 16 16 16 16 15 15 15 15 15 15 14 14 14 14 14 14 14 14 14
21 21 21 21 21 20 20 20 20 19 19 19 19 19 18 18 18 18 18 17 17 17 16 16 16 16 16 15 15 15 15 15 15 14 14 14 14 14 14 13 13 13 13
20 20 20 20 20 20 20 19 19 19 19 19 18 18 18 18 18 18 17 17 17 16 16 16 16 15 15 15 15 14 14 14 14 14 14 14 13 13 13 13 13 13 13
19 19 19 19 19 19 19 19 18 18 18 18 18 18 18 17 17 17 17 17 16 16 16 15 15 15 15 15 15 14 14 14 14 14 14 13 13 13 13 13 12 12 12
18 18 19 18 18 18 18 18 18 17 17 17 17 17 17 17 17 17 16 16 16 16 15 15 15 15 15 15 15 14 14 14 13 13 13 13 13 13 12 12 12 12 12
18 18 18 18 18 18 17 17 17 17 17 17 17 17 17 17 16 16 16 16 16 15 15 15 15 15 15 15 15 14 14 14 13 13 13 13 12 12 12 12 12 12 12
17 17 17 17 17 17 17 17 17 16 16 16 16 16 16 16 16 16 16 16 15 15 15 15 15 15 15 15 14 14 14 13 13 13 13 12 12 12 12 12 12 12 12
17 17 17 17 17 17 17 16 16 16 16 16 16 16 15 15 15 15 15 15 15 15 14 14 14 14 14 14 14 14 13 13 13 13 12 12 12 12 12 12 12 12 11
Wind_Speed
6 5 6 6 5 4 4 4 3 3 3 2 1 1 0 1 1 1 1 1 1 2 2 1 1 1 1 0 0 1 1 1 1 1 2 3 2 2 1 1 1 1 2
5 6 6 6 6 6 6 5 4 4 3 2 2 1 1 0 0 1 2 1 1 1 1 1 1 1 1 1 1 1 1 1 1 1 1 2 3 3 2 1 1 2 2
10 9 8 7 7 7 7 7 6 5 4 3 2 2 2 2 2 1 1 1 1 0 0 1 1 1 1 0 1 0 1 0 1 1 2 1 1 2 2 2 1 2 2
9 9 9 8 8 8 7 6 6 5 4 4 4 3 2 2 2 1 1 2 1 0 0 1 1 1 1 0 1 0 0 1 1 0 0 1 2 1 2 2 2 2 2
11 11 11 10 9 8 7 6 6 5 5 5 5 4 3 2 1 0 0 1 1 1 0 1 1 1 1 1 0 0 0 1 1 1 1 0 0 1 1 3 3 2 2
10 9 9 7 6 6 6 6 6 6 5 6 5 5 5 4 2 1 1 1 1 1 1 1 1 1 1 1 1 1 0 1 1 1 1 1 1 1 1 2 3 3 3
8 8 8 8 8 7 7 7 7 7 6 6 6 6 6 5 5 3 3 2 1 1 2 1 1 1 2 2 1 1 1 1 1 1 1 2 2 2 2 2 2 2 2
8 8 9 8 8 8 8 8 8 7 7 7 6 5 5 4 3 3 3 3 2 2 2 1 1 2 1 1 1 1 1 1 1 1 1 1 1 1 2 2 2 1 2
7 7 7 7 8 8 8 9 9 7 7 6 6 5 5 4 4 3 2 2 2 2 1 1 1 1 1 1 1 1 1 1 1 1 0 1 1 1 2 2 2 2 2
6 6 7 7 7 7 7 7 8 8 6 6 6 5 4 4 4 3 3 2 2 1 1 1 1 1 0 0 1 0 0 0 0 0 0 1 1 1 1 1 1 2 3
7 7 6 6 6 5 6 6 6 6 6 6 5 4 4 4 3 3 4 3 2 2 2 1 1 1 1 0 1 1 0 0 1 1 1 1 1 1 1 1 1 1 2
5 5 5 5 5 6 6 6 6 6 6 6 5 5 4 4 4 4 4 3 3 2 2 2 2 2 1 1 1 1 1 1 1 1 1 2 1 1 1 1 1 2 2
4 4 4 4 5 5 5 5 5 6 5 5 6 5 4 4 4 4 3 3 3 2 2 2 3 3 2 2 2 2 2 2 2 2 2 3 2 2 2 2 2 2 2
4 5 4 4 4 4 4 5 5 5 5 5 5 5 6 5 5 4 3 3 3 3 3 3 3 3 3 3 2 2 2 2 2 3 3 3 3 4 3 2 2 2 1
4 5 5 4 4 3 3 4 4 5 5 5 5 6 6 5 4 4 4 4 3 4 3 3 3 3 3 3 3 3 3 3 3 3 3 4 4 4 4 3 3 2 2
5 5 5 4 4 5 5 4 4 4 5 5 6 5 4 5 5 5 4 4 4 3 3 3 3 3 3 4 5 4 3 3 3 3 4 4 3 3 3 3 3 3 3
5 5 5 5 5 5 5 4 4 3 4 5 4 4 4 5 5 5 4 4 4 3 3 3 3 4 4 4 4 4 3 3 3 3 3 3 3 2 2 2 2 3 4
5 5 4 4 4 3 3 3 3 3 3 3 3 3 4 4 4 4 4 5 4 4 4 4 4 3 4 3 4 3 2 2 3 3 4 3 4 3 2 2 2 3 3
3 4 4 3 3 3 3 3 3 2 2 2 3 3 4 4 4 4 5 4 4 4 4 3 3 3 4 3 3 2 1 2 3 4 4 4 4 4 3 2 3 3 4
2 2 3 3 3 2 3 4 3 2 2 3 3 2 3 4 4 5 5 4 4 4 4 3 3 3 3 3 3 3 2 2 3 3 3 4 4 5 3 2 2 4 4
3 3 4 3 2 2 4 4 2 2 3 2 1 1 2 3 4 3 3 3 3 3 3 3 2 3 4 4 4 4 3 3 3 4 3 3 5 5 4 3 3 5 5
3 3 3 2 2 3 4 3 1 2 1 0 0 1 1 1 1 2 2 3 3 3 3 2 3 3 3 4 4 5 5 4 4 4 4 3 4 4 4 3 4 5 3
2 3 3 3 2 2 3 2 2 1 1 1 0 0 0 0 0 1 2 2 2 3 3 3 3 3 3 3 4 5 5 5 4 3 4 4 4 3 3 4 4 3 2
1 2 3 2 1 1 0 1 2 1 2 1 1 0 0 1 1 1 2 2 3 3 3 3 3 3 3 3 2 3 3 4 3 3 3 3 3 3 2 2 2 2 2
1 2 3 2 1 0 0 1 1 1 1 1 1 1 1 1 1 2 2 3 4 5 5 4 4 4 4 5 5 4 3 3 3 2 1 1 1 1 2 2 2 1 1
1 2 1 1 1 1 0 1 1 2 2 1 1 2 2 1 1 2 2 2 3 4 5 6 5 5 6 5 5 6 6 5 4 3 1 2 3 3 3 3 3 2 2
Wind_Direction
202 183 178 171 161 160 159 165 161 157 126 102 97 87 345 329 2 335 348 50 73 101 122 102 74 75 77 47 58 96 56 23 17 52 16 9 13 14 348 320 304 291 279
190 187 180 175 177 178 179 180 185 176 169 160 143 143 151 192 250 343 6 24 35 77 135 119 101 80 74 38 32 79 88 10 38 95 70 353 353 5 358 356 343 326 317
196 194 189 188 185 188 189 194 193 187 186 166 120 89 66 40 29 3 348 337 328 331 145 134 139 105 111 71 312 262 152 216 9 81 145 153 261 317 341 350 346 334 327
197 193 192 192 197 198 189 188 185 184 184 168 158 156 160 186 223 243 286 321 343 343 171 159 154 148 138 177 277 306 213 177 271 339 69 189 189 205 306 328 342 338 330
197 195 196 198 200 192 184 184 179 185 183 178 177 173 186 200 198 191 300 315 328 322 287 191 163 162 182 216 264 36 91 173 212 221 219 187 88 204 227 290 316 329 323
196 196 195 189 190 182 180 179 180 192 187 184 185 187 195 190 180 204 237 281 298 306 302 226 179 194 214 235 246 221 202 223 219 220 204 193 192 208 208 248 287 301 305
186 187 187 189 191 187 187 182 183 196 193 189 194 198 198 188 195 209 219 235 261 275 271 252 223 224 229 232 224 227 263 251 243 237 228 214 218 191 183 208 263 291 305
182 187 189 189 190 191 191 186 187 195 193 194 199 199 192 191 203 211 212 223 237 251 254 241 241 251 250 239 211 233 259 269 259 266 249 230 226 190 190 192 194 282 309
181 185 183 183 188 186 190 190 186 189 190 190 187 187 189 192 200 203 204 219 232 243 243 244 249 252 236 225 195 198 257 279 283 285 288 263 258 224 216 205 200 199 265
173 177 179 187 191 186 181 179 181 187 186 183 191 196 194 196 195 190 206 215 225 226 221 250 253 260 268 147 148 201 271 90 328 281 245 304 303 285 222 210 215 210 216
183 179 178 183 180 171 169 171 178 179 180 184 185 187 190 189 183 196 212 212 209 202 206 223 237 231 239 235 162 214 160 158 322 328 325 308 300 290 277 228 207 209 210
183 170 165 162 162 163 169 176 179 181 186 182 178 188 191 189 197 211 216 205 206 211 210 207 220 235 246 241 206 232 226 223 248 266 279 297 300 289 263 235 226 231 225
160 152 148 157 168 172 176 181 184 187 183 173 175 184 192 198 209 217 213 205 207 212 216 212 222 234 238 232 226 232 240 235 243 252 256 266 263 271 264 252 256 255 250
156 154 162 169 174 177 181 187 195 190 181 173 183 196 206 210 214 215 210 210 209 209 221 224 229 233 232 226 230 233 236 241 253 258 255 254 245 248 250 251 250 251 263
161 171 173 173 170 170 182 193 200 190 182 179 196 215 213 206 206 211 214 212 212 220 219 222 235 237 231 236 237 232 234 239 257 271 271 266 257 252 248 247 236 225 234
187 187 177 173 182 187 191 192 201 191 177 192 211 217 204 200 205 211 211 208 215 220 214 224 234 242 249 243 232 227 233 237 246 265 280 281 277 279 270 258 236 216 220
191 188 190 191 198 199 193 195 200 178 178 195 209 212 204 207 211 207 200 207 212 209 217 227 231 246 253 244 237 229 230 242 251 259 270 282 290 281 276 282 267 249 237
187 188 192 195 197 184 177 178 158 155 173 190 198 200 197 209 210 201 208 212 207 206 216 225 233 243 258 246 235 231 232 252 263 264 259 259 273 274 268 275 285 283 274
193 191 185 179 167 160 161 144 135 136 162 209 225 211 201 207 206 209 218 215 206 211 216 220 225 234 260 250 227 211 233 262 273 272 264 258 262 270 262 256 275 290 292
132 136 123 115 128 137 136 135 144 146 203 232 237 232 213 206 214 217 220 216 207 217 217 226 229 229 246 247 221 192 205 248 272 280 274 263 262 272 258 233 247 271 281
95 107 111 115 136 135 131 139 152 203 232 235 231 227 224 217 216 217 218 207 205 204 207 222 241 242 247 248 234 213 209 233 255 267 272 271 265 263 256 236 240 254 262
97 105 106 98 84 99 116 121 207 253 250 155 160 238 248 248 231 208 222 204 194 202 216 227 255 260 255 246 244 235 234 235 240 255 263 266 261 253 248 249 263 264 257
107 107 108 88 68 95 129 150 233 245 109 89 344 293 8 324 246 215 219 216 206 214 229 233 251 266 262 255 245 244 244 240 237 253 253 257 255 250 256 260 260 254 254
114 112 106 97 65 57 106 205 234 157 113 119 292 296 259 285 288 260 226 211 222 224 225 232 244 260 264 264 258 249 247 244 250 266 272 263 261 265 276 297 287 264 250
143 123 124 135 195 110 303 264 229 155 150 193 253 271 263 245 252 252 240 225 226 221 222 232 231 234 250 250 232 221 232 229 229 224 279 312 312 295 297 297 294 280 265
144 114 121 160 217 216 239 287 251 175 173 219 257 254 256 256 252 261 290 259 236 242 229 225 227 236 239 246 229 232 233 221 189 169 232 251 254 255 259 259 264 261 258
Height
1525 1528 1530 1531 1533 1534 1535 1536 1537 1538 1539 1540 1540 1541 1541 1542 1543 1543 1544 1544 1545 1545 1545 1545 1545 1544 1544 1543 1543 1542 1542 1542 1542 1541 1541 1540 1540 1540 1540 1540 1540 1540 1539
1524 1526 1528 1530 1532 1533 1535 1536 1537 1538 1539 1540 1541 1541 1542 1542 1543 1544 1544 1545 1545 1545 1546 1546 1545 1545 1544 1544 1543 1542 1542 1541 1541 1541 1540 1539 1540 1539 1539 1539 1538 1538 1538
1521 1524 1526 1528 1530 1532 1534 1535 1536 1538 1539 1540 1541 1541 1542 1542 1543 1544 1544 1545 1545 1545 1546 1545 1545 1545 1544 1544 1543 1542 1541 1541 1541 1540 1540 1540 1539 1538 1538 1538 1537 1537 1536
1519 1522 1524 1526 1528 1530 1533 1534 1536 1537 1539 1540 1540 1541 1541 1542 1543 1543 1544 1545 1545 1545 1545 1545 1545 1545 1544 1543 1542 1542 1541 1540 1540 1539 1539 1539 1539 1538 1537 1537 1536 1535 1535
1516 1519 1521 1524 1526 1529 1531 1533 1535 1536 1538 1539 1540 1540 1541 1542 1543 1544 1544 1545 1545 1545 1545 1545 1544 1544 1543 1543 1542 1541 1541 1540 1539 1538 1538 1537 1537 1537 1536 1535 1534 1533 1533
1513 1516 1519 1522 1525 1527 1529 1531 1533 1535 1536 1537 1539 1540 1540 1541 1542 1543 1543 1544 1544 1544 1544 1544 1544 1543 1543 1542 1541 1540 1540 1539 1538 1537 1537 1536 1536 1535 1535 1534 1532 1531 1531
1510 1513 1516 1519 1521 1524 1526 1529 1531 1533 1534 1536 1537 1538 1539 1540 1541 1542 1543 1543 1543 1543 1543 1543 1542 1542 1541 1541 1540 1539 1538 1538 1537 1536 1535 1535 1534 1534 1533 1532 1531 1530 1529
1507 1510 1513 1516 1519 1521 1524 1526 1528 1530 1532 1534 1535 1537 1538 1539 1540 1541 1542 1542 1542 1542 1542 1542 1541 1541 1540 1539 1538 1538 1537 1536 1535 1535 1534 1533 1533 1532 1532 1531 1530 1528 1528
1505 1508 1511 1514 1517 1519 1521 1524 1526 1528 1530 1532 1534 1535 1536 1538 1539 1540 1540 1541 1541 1541 1541 1541 1540 1539 1538 1538 1537 1536 1535 1535 1534 1533 1532 1531 1531 1530 1530 1529 1529 1529 1526
1503 1506 1509 1512 1514 1517 1519 1522 1524 1526 1528 1530 1532 1533 1535 1536 1537 1538 1538 1539 1539 1539 1539 1539 1538 1538 1537 1536 1535 1535 1534 1533 1532 1531 1530 1530 1529 1528 1528 1527 1526 1526 1525
1501 1504 1507 1510 1513 1515 1518 1520 1522 1524 1526 1528 1530 1532 1533 1534 1535 1536 1537 1537 1537 1537 1537 1537 1537 1536 1535 1534 1534 1533 1532 1531 1530 1529 1528 1528 1527 1526 1525 1525 1524 1523 1523
1500 1503 1505 1508 1511 1514 1516 1518 1520 1522 1524 1526 1528 1529 1531 1532 1533 1533 1534 1535 1535 1536 1536 1535 1535 1534 1534 1533 1532 1531 1530 1529 1529 1528 1527 1526 1525 1524 1523 1523 1522 1521 1520
1500 1502 1505 1507 1509 1512 1514 1517 1519 1520 1522 1524 1525 1527 1528 1529 1530 1531 1532 1533 1533 1533 1533 1533 1533 1532 1532 1531 1530 1529 1529 1528 1527 1526 1525 1524 1523 1522 1521 1521 1520 1519 1518
1499 1501 1504 1506 1508 1511 1513 1516 1517 1519 1520 1522 1523 1524 1526 1527 1528 1529 1530 1530 1530 1530 1530 1530 1530 1530 1529 1528 1528 1527 1526 1525 1524 1524 1523 1522 1521 1520 1519 1518 1517 1517 1516
1498 1500 1503 1505 1507 1509 1512 1514 1516 1517 1518 1520 1521 1522 1523 1524 1526 1527 1527 1527 1528 1527 1527 1527 1527 1526 1526 1525 1525 1524 1524 1523 1522 1521 1520 1519 1519 1518 1517 1516 1515 1514 1513
1497 1499 1501 1503 1506 1508 1510 1512 1513 1515 1516 1518 1518 1520 1520 1521 1522 1523 1524 1524 1524 1524 1524 1524 1524 1523 1523 1522 1522 1522 1521 1520 1519 1518 1518 1517 1516 1515 1514 1513 1512 1512 1510
1496 1497 1499 1502 1504 1506 1507 1509 1511 1513 1514 1515 1516 1517 1517 1518 1519 1520 1521 1521 1521 1521 1521 1521 1520 1520 1520 1519 1519 1519 1518 1517 1516 1515 1515 1514 1513 1513 1511 1510 1509 1508 1507
1495 1497 1499 1500 1502 1504 1506 1508 1509 1510 1511 1512 1512 1514 1515 1515 1516 1517 1517 1517 1518 1517 1517 1517 1517 1517 1516 1516 1516 1516 1515 1514 1513 1512 1512 1511 1510 1510 1508 1507 1506 1505 1504
1494 1496 1497 1499 1500 1502 1504 1505 1507 1508 1509 1510 1510 1511 1512 1513 1513 1513 1514 1514 1514 1514 1514 1514 1514 1513 1513 1513 1513 1512 1512 1511 1510 1510 1509 1508 1507 1506 1505 1504 1503 1502 1501
1493 1494 1496 1498 1499 1501 1502 1503 1504 1505 1506 1508 1508 1509 1509 1510 1510 1511 1511 1512 1511 1511 1511 1511 1510 1510 1510 1510 1509 1509 1508 1507 1507 1506 1506 1505 1504 1503 1502 1501 1500 1499 1498
1492 1493 1495 1496 1498 1500 1501 1502 1503 1503 1504 1505 1506 1507 1508 1508 1508 1508 1508 1508 1508 1508 1507 1507 1507 1507 1506 1506 1506 1506 1505 1504 1503 1503 1502 1502 1501 1500 1499 1498 1497 1496 1496
1492 1493 1494 1495 1497 1498 1500 1501 1502 1503 1503 1504 1504 1505 1505 1505 1505 1505 1505 1505 1505 1504 1504 1504 1503 1503 1503 1503 1502 1502 1502 1501 1501 1500 1499 1498 1498 1497 1496 1495 1495 1494 1493
1491 1492 1493 1494 1495 1496 1498 1499 1500 1501 1501 1502 1502 1502 1502 1503 1502 1502 1502 1501 1501 1501 1500 1500 1499 1499 1499 1499 1499 1499 1498 1498 1497 1497 1496 1495 1495 1494 1493 1493 1492 1491 1490
1491 1491 1492 1493 1493 1495 1497 1498 1499 1499 1499 1499 1499 1499 1499 1499 1499 1499 1498 1498 1498 1497 1497 1496 1496 1496 1496 1495 1495 1495 1494 1494 1494 1493 1492 1492 1491 1491 1490 1489 1489 1488 1487
1490 1490 1490 1491 1492 1493 1495 1496 1497 1497 1497 1497 1496 1496 1496 1495 1496 1495 1495 1494 1494 1494 1493 1492 1492 1492 1491 1491 1492 1491 1491 1490 1490 1490 1489 1488 1487 1487 1486 1486 1486 1485 1484
1489 1489 1489 1490 1491 1492 1492 1494 1494 1494 1494 1493 1493 1493 1493 1492 1492 1491 1491 1490 1491 1490 1489 1489 1489 1489 1489 1488 1488 1488 1488 1487 1487 1486 1485 1484 1484 1483 1483 1483 1483 1482 1481